Regional Weather Roundup
Issued by NWS

Home | Current Version | Previous Version | Text Only | Print | Product List | Glossary On
Versions: 1 2 3 4 5 6 7 8 9 10 11 12 13 14 15 16 17 18 19 20 21 22 23 24 25 26 27 28 29 30 31 32 33 34 35 36 37 38 39 40 41 42 43 44 45 46 47 48 49 50
000
ASUS44 KFWD 012303
RWRTX
NORTH TEXAS HOURLY WEATHER ROUNDUP
NATIONAL WEATHER SERVICE FORT WORTH TX
600 PM CDT SAT AUG 01 2015

NOTE: "FAIR" INDICATES FEW OR NO CLOUDS BELOW 12,000 FEET WITH NO
SIGNIFICANT WEATHER AND/OR OBSTRUCTIONS TO VISIBILITY.

TXZ118-119-020000-
DALLAS/FORT WORTH METROPLEX

CITY           SKY/WX    TMP DP  RH WIND       PRES   REMARKS
DFW AIRPORT    PTSUNNY   97  52  21 E6        29.94F HX  94
DALLAS LOVE    MOSUNNY   95  52  23 NE9       29.93F HX  92
FTW MEACHAM    PTSUNNY   95  53  24 SE5       29.95F HX  92
DAL-EXECUTIVE  SUNNY     96  54  24 E6        29.94F HX  94
FTW-ALLIANCE   PTSUNNY   93  55  27 NE6       29.95F HX  91
FTW-NAS-JRB    PTSUNNY   95  56  26 NE5       29.95F HX  93
FTW-SPINKS     SUNNY     93  55  27 E6        29.96F HX  91
ARLINGTON      MOSUNNY   96  49  20 E6        29.95F HX  93
GRAND PRAIRIE  SUNNY     93  57  29 E6        29.95F HX  92
ADDISON        MOSUNNY   95  52  23 E10       29.97F HX  92
MESQUITE       SUNNY     97  55  24 E6        29.94F HX  95
LANCASTER      SUNNY     96  49  20 E5        29.95F HX  93
$$

TXZ091>094-102>105-117-120-121-131>134-020000-
NORTH CENTRAL TEXAS

CITY           SKY/WX    TMP DP  RH WIND       PRES   REMARKS
SHRMAN/DENISON MOSUNNY   94  59  31 CALM      29.97F HX  93
GAINESVILLE    MOSUNNY   93  57  30 S6        29.98F HX  91
BOWIE          MOSUNNY   86  62  44 SW6       29.99F
DECATUR        MOSUNNY   90  60  35 CALM      29.98F
DENTON         MOSUNNY   93  58  30 S7        29.95F HX  92
MCKINNEY       SUNNY     95  56  26 VRB6      29.94F HX  93
ROCKWALL       SUNNY     95  57  28 E7        29.94F HX  93
TERRELL        SUNNY     96  58  27 E5        29.94F HX  95
WAXAHACHIE     MOSUNNY   94  59  31 E8        29.96F HX  93
CLEBURNE         N/A     95  54  24 E7        29.97F HX  93
GRANBURY       MOSUNNY   95  58  28 N3        29.97F HX  94
$$

TXZ083>090-098>101-113>116-127>130-139>142-154-155-020000-
WESTERN NORTH TEXAS

CITY           SKY/WX    TMP DP  RH WIND       PRES   REMARKS
WICHITA FALLS  CLOUDY    83  70  64 S8        29.98F
WF-KICKAPOO    CLOUDY    85  70  60 S7        29.99F
VERNON         CLOUDY    81  65  58 SW7       30.00F
ABILENE        SUNNY     93  64  38 E15G21    29.99F HX  94
ABILENE-DYESS  SUNNY     93  67  43 E15G23    29.97F HX  96
BRECKENRIDGE   MOSUNNY   87  64  45 NE7       29.97F
GRAHAM         CLOUDY    83  71  64 CALM      29.98F
MINERAL WELLS  PTSUNNY   90  67  46 N7        29.96F HX  93
STEPHENVILLE   MOSUNNY   91  58  33 NE7       30.01F
COMANCHE       SUNNY     92  63  38 NE8       29.99S HX  92
COLEMAN        SUNNY     93  65  39 E9G20     29.99F HX  95
BRADY          MOSUNNY   95  61  31 E10       29.98S HX  95
$$

TXZ143>147-156>162-174-175-020000-
CENTRAL TEXAS

CITY           SKY/WX    TMP DP  RH WIND       PRES   REMARKS
WACO           SUNNY     97  56  25 E10G25    29.93F HX  95
WACO-TSTC      SUNNY     97  55  24 E7        29.93F HX  95
WACO-MCGREGOR  SUNNY     99  52  20 NE14      29.94F HX  96
HILLSBORO      MOSUNNY   96  48  19 NE7       29.94F HX  93
CORSICANA      SUNNY     97  56  25 NE10      29.95F HX  95
MEXIA          SUNNY     95  60  30 E10G20    29.92F HX  95
HEARNE         SUNNY     96  61  31 NE7       29.92F HX  96
CAMERON        SUNNY     96  58  27 CALM      29.91F HX  95
TEMPLE         SUNNY     97  52  21 E7        29.94F HX  94
KILLEEN        SUNNY     95  57  27 E9        29.94F HX  93
KILLEEN-SKYLRK SUNNY     95  55  26 E12       29.93F HX  93
FORT HOOD      SUNNY     96  52  22 E13       29.93F HX  93
GATESVILLE     SUNNY     95  57  28 E9        29.96F HAZE    HX  94
HAMILTON       SUNNY     95  55  26 E5        29.98F HX  93
LAMPASAS       SUNNY     96  56  25 E5        29.95F HX  94
$$

TXZ095>097-106>112-122>126-135>138-148>153-164>167-020000-
EAST TEXAS

CITY           SKY/WX    TMP DP  RH WIND       PRES   REMARKS
PARIS          SUNNY     95  57  28 E12       29.96F HX  94
SULPHUR SPRNGS SUNNY     96  53  23 NE8       29.97F HX  93
MOUNT PLEASANT SUNNY     96  51  21 NE6       29.96F HX  93
GILMER         SUNNY     94  56  28 NE8       29.95F HX  92
MINEOLA        SUNNY     97  48  19 SE3       29.96F HX  93
TYLER          SUNNY     97  56  25 NE12      29.95F HX  95
LONGVIEW       SUNNY     97  56  25 NE8       29.93F HX  95
MARSHALL       SUNNY     96  55  25 NE5       29.96F HX  94
ATHENS         SUNNY     95  57  28 NE8       29.93F HX  94
PALESTINE      SUNNY     97  56  25 NE9       29.94F HX  95
JACKSONVILLE   SUNNY     96  50  21 E9        29.97F HX  92
HENDERSON      SUNNY     96  53  23 MISG      29.94F HX  93
CENTER         FAIR      96  53  23 E7        29.92F HX  94
NACOGDOCHES    SUNNY     95  57  28 SE8       29.92F HX  94
LUFKIN         SUNNY     94  59  31 E7        29.92F HX  93
$$

SUPPLEMENTAL OBSERVATIONS (CENTRAL)

CITY           SKY/WX    TMP DP  RH WIND       PRES   REMARKS
$$

SUPPLEMENTAL OBSERVATIONS (WEST)

CITY           SKY/WX    TMP DP  RH WIND       PRES   REMARKS
$$

SUPPLEMENTAL OBSERVATIONS (EAST)

CITY           SKY/WX    TMP DP  RH WIND       PRES   REMARKS
$$

SUPPLEMENTAL OBSERVATIONS ARE A COLLECTION OF AUTOMATED INSTRUMENTS
THAT ARE MAINTAINED BY A VARIETY OF FEDERAL AND STATE AGENCIES.
CERTAIN ELEMENTS...SUCH AS HUMIDITY VALUES AND SUSTAINED WIND
SPEEDS...MAY BE APPROXIMATED.



USA.gov is the U.S. government's official web portal to all federal, state and local government web resources and services.